Tracking 22287 objects as of 27-Jan-2021
HD Live streaming from Space Station
objects crossing your sky now

COSMOS 1247

Track COSMOS 1247 now!
COSMOS 1247 is classified as:


NORAD ID: 12303
Int'l Code: 1981-016A
Perigee: 2,484.8 km
Apogee: 37,556.0 km
Inclination: 66.5 °
Period: 711.1 minutes
Semi major axis: 26391 km
RCS: 8.0719 m2 (large)
Launch date: February 19, 1981
Source: Commonwealth of Independent States (former USSR) (CIS)
Launch site: PLESETSK MISSILE AND SPACE COMPLEX (PKMTR)
aabbcc
Your satellite tracking list
Your tracking list is empty




NASA's NSSDC Master Catalog

Two Line Element Set (TLE):
1 12303U 81016A   21027.19306800 -.00000574  00000-0  00000-0 0  9991
2 12303  66.5255 152.9889 6644443  25.5623 355.8402  2.02492867295346
Source of the keplerian elements: AFSPC